Regional Weather Roundup
Issued by NWS State College, PA

Home | Current Version | Previous Version | Text Only | Print | Product List | Glossary On
Versions: 1 2 3 4 5 6 7 8 9 10 11 12 13 14 15 16 17 18 19 20 21 22 23 24 25 26 27 28 29 30 31 32 33 34 35 36 37 38 39 40 41 42 43 44 45 46 47 48 49 50
000
ASUS41 KCTP 260610
RWRCTP

REGIONAL WEATHER ROUNDUP
NATIONAL WEATHER SERVICE STATE COLLEGE PA
100 AM EST SUN FEB 26 2017

Note: "fair" indicates few or no clouds below 12,000 feet with no
significant weather and/or obstructions to visibility.

* = STATION THAT DOES NOT REPORT PRECIPITATION /E.G. RAIN...SNOW...ETC/
    THUNDER OR FOG.

PAZ002>004-007>009-013>016-020>023-029>032-260700-
WESTERN PENNSYLVANIA

CITY           SKY/WX    TMP DP  RH WIND       PRES   REMARKS
ERIE           LGT SNOW  27  20  75 W16G28    29.94R WCI  15
MEADVILLE      FLURRIES  24  18  77 W18       29.91R WCI  10
FRANKLIN*      CLOUDY    25  14  63 W10G23    29.92R WCI  15
NEW CASTLE     FLURRIES  26  17  68 W20G28    29.98R WCI  12
BEAVER COUNTY  NOT AVBL
BUTLER*        CLOUDY    27  16  63 W14G22    29.97R
PITTSBURGH INT FLURRIES  27  17  66 W20       29.98R WCI  13
PITTSBURGH     CLOUDY    27  13  55 NW9G24    29.96R
INDIANA*       CLOUDY    28  19  69 W10G22    29.95R
LATROBE        LGT RAIN  28  18  64 W13G24    29.97R
WASHINGTON CO* CLOUDY    27  16  63 W9G21     30.01R
$$

PAZ004>006-010>012-017>019-024>028-033>037-041-042-045-046-049>053-260700-
CENTRAL PENNSYLVANIA

CITY           SKY/WX    TMP DP  RH WIND       PRES   REMARKS
BRADFORD       LGT SNOW  23  19  85 W16G23    29.80R FOG     WCI  10
DUBOIS         FLURRIES  26  16  65 W21G26    29.85R WCI  12
CLEARFIELD       N/A    N/A N/A N/A MISG      29.86R
JOHNSTOWN      FLURRIES  24  17  74 W9G23     29.84R WCI  14
ALTOONA        CLOUDY    29  16  58 W21G38    29.89R
STATE COLLEGE  CLOUDY    31  19  62 W16G22    29.86R
WILLIAMSPORT   MOCLDY    35  21  56 W14       29.83R
SELINSGROVE    CLOUDY    36  19  50 W10G21    29.86R
FT INDIANTOWN  CLOUDY    37  20  50 W15G28    29.84R
CAPITAL CITY   CLOUDY    39  17  41 W17G28    29.87R
HARRISBURG     MOCLDY    38  20  48 NW23G29   29.86R
YORK           CLOUDY    37  24  59 NW14G26   29.86R
$$

PAZ038>040-043-044-047-048-054-055-060>062-067>071-260700-
EASTERN PENNSYLVANIA

CITY           SKY/WX    TMP DP  RH WIND       PRES   REMARKS
SCRANTON       CLOUDY    35  33  92 NW8       29.75R
MOUNT POCONO   FLURRIES  31  28  89 NW20G28   29.68R
ALLENTOWN      MOCLDY    40  23  50 W10G20    29.76R
QUAKERTOWN*    CLEAR     39  25  56 W6G17     29.78R
READING        CLOUDY    40  25  55 NW20G31   29.81R
LANCASTER      CLOUDY    39  23  52 NW23G35   29.84R
COATESVILLE    CLOUDY    39  27  60 NW18G28   29.81R
POTTSTOWN      PTCLDY    39  25  57 W15G22    29.80R
BLUE BELL      CLEAR     39  27  60 W6        29.77R
DOYLESTOWN     CLEAR     40  26  57 W10G23    29.75R
WILLOW GROVE   NOT AVBL
NORTH PHILA    CLEAR     43  26  51 W13G22    29.79R
PHILADELPHIA   PTCLDY    45  25  45 NW18G25   29.79R
$$




USA.gov is the U.S. government's official web portal to all federal, state and local government web resources and services.